| time (UTC) | temp F | wind direction | speed knots | gust knots | rain 1hr in | rain 24hr in | rain mn in | humidity % | barometer mb |
| 20260507052504 | 57 | 100 | 2.6 | 7.8 | 0.00 | 0.54 | 0.00 | 82 | 1017.7 |
| 20260507052004 | 57 | 92 | 1.7 | 5.2 | 0.00 | 0.54 | 0.00 | 82 | 1017.7 |
| 20260507051512 | 57 | 41 | 0.9 | 7.8 | 0.00 | 0.54 | 0.00 | 82 | 1017.8 |
| 20260507051008 | 57 | 90 | 1.7 | 7.8 | 0.00 | 0.54 | 0.00 | 82 | 1017.7 |
| 20260507050505 | 57 | 64 | 1.7 | 5.2 | 0.00 | 0.54 | 0.00 | 82 | 1017.7 |
| 20260507050026 | 58 | 59 | 1.7 | 5.2 | 0.00 | 0.54 | 0.00 | 82 | 1017.7 |
| 20260507045506 | 58 | 69 | 0.9 | 8.7 | 0.00 | 0.54 | 0.54 | 82 | 1017.7 |
| 20260507045005 | 58 | 98 | 0.9 | 8.7 | 0.00 | 0.54 | 0.54 | 82 | 1017.6 |
| 20260507044520 | 58 | 33 | 2.6 | 8.7 | 0.00 | 0.54 | 0.54 | 82 | 1017.7 |
| 20260507044008 | 58 | 59 | 0.0 | 5.2 | 0.00 | 0.54 | 0.54 | 82 | 1017.7 |
| 20260507043506 | 58 | 60 | 1.7 | 5.2 | 0.00 | 0.54 | 0.54 | 82 | 1017.7 |
| 20260507043018 | 59 | 59 | 1.7 | 7.0 | 0.00 | 0.54 | 0.54 | 82 | 1017.8 |
| 20260507042504 | 59 | 59 | 0.9 | 7.8 | 0.00 | 0.54 | 0.54 | 82 | 1018.0 |
| 20260507042006 | 59 | 30 | 2.6 | 8.7 | 0.00 | 0.54 | 0.54 | 81 | 1018.1 |
| 20260507041522 | 59 | 16 | 3.5 | 8.7 | 0.00 | 0.54 | 0.54 | 81 | 1018.1 |
| 20260507041007 | 59 | 66 | 3.5 | 8.7 | 0.00 | 0.54 | 0.54 | 81 | 1018.2 |
| 20260507040503 | 59 | 50 | 2.6 | 8.7 | 0.00 | 0.54 | 0.54 | 81 | 1018.2 |
| 20260507040013 | 59 | 52 | 2.6 | 7.8 | 0.00 | 0.54 | 0.54 | 81 | 1018.0 |
| 20260507035504 | 59 | 84 | 3.5 | 7.8 | 0.00 | 0.54 | 0.54 | 81 | 1018.1 |
| 20260507035007 | 59 | 63 | 0.9 | 9.6 | 0.00 | 0.54 | 0.54 | 81 | 1018.1 |
| 20260507034520 | 59 | 64 | 4.3 | 9.6 | 0.00 | 0.54 | 0.54 | 81 | 1018.1 |
| 20260507034010 | 59 | 32 | 2.6 | 8.7 | 0.00 | 0.54 | 0.54 | 81 | 1018.2 |
| 20260507033507 | 59 | 54 | 3.5 | 10.4 | 0.00 | 0.54 | 0.54 | 80 | 1018.1 |
| 20260507033022 | 59 | 15 | 2.6 | 10.4 | 0.00 | 0.54 | 0.54 | 81 | 1017.9 |
| 20260507032509 | 59 | 50 | 4.3 | 10.4 | 0.00 | 0.54 | 0.54 | 81 | 1017.9 |
| 20260507032008 | 59 | 77 | 5.2 | 10.4 | 0.00 | 0.54 | 0.54 | 81 | 1017.9 |
| 20260507031522 | 59 | 43 | 2.6 | 8.7 | 0.00 | 0.54 | 0.54 | 81 | 1017.8 |
| 20260507031008 | 59 | 9 | 4.3 | 9.6 | 0.00 | 0.54 | 0.54 | 81 | 1017.7 |
| 20260507030508 | 59 | 35 | 3.5 | 9.6 | 0.00 | 0.54 | 0.54 | 81 | 1017.6 |
| 20260507030019 | 59 | 51 | 3.5 | 9.6 | 0.00 | 0.54 | 0.54 | 81 | 1017.4 |
| 20260507025509 | 59 | 61 | 2.6 | 8.7 | 0.00 | 0.54 | 0.54 | 82 | 1017.4 |
| 20260507025004 | 59 | 84 | 2.6 | 7.8 | 0.00 | 0.54 | 0.54 | 82 | 1017.2 |
| 20260507024516 | 59 | 22 | 1.7 | 7.0 | 0.00 | 0.54 | 0.54 | 82 | 1017.2 |
| 20260507024005 | 59 | 51 | 0.9 | 7.0 | 0.00 | 0.54 | 0.54 | 82 | 1017.1 |
| 20260507023508 | 59 | 76 | 0.9 | 8.7 | 0.00 | 0.54 | 0.54 | 82 | 1017.0 |
| 20260507023020 | 59 | 55 | 2.6 | 8.7 | 0.00 | 0.54 | 0.54 | 83 | 1016.8 |
| 20260507022509 | 59 | 18 | 0.9 | 5.2 | 0.00 | 0.54 | 0.54 | 83 | 1016.7 |
| 20260507022007 | 59 | 63 | 1.7 | 7.0 | 0.00 | 0.54 | 0.54 | 83 | 1016.7 |
| 20260507021524 | 59 | 350 | 0.9 | 7.8 | 0.00 | 0.54 | 0.54 | 83 | 1016.7 |
| 20260507021008 | 59 | 22 | 1.7 | 7.8 | 0.00 | 0.54 | 0.54 | 82 | 1016.6 |
| 20260507020509 | 59 | 50 | 3.5 | 7.8 | 0.00 | 0.54 | 0.54 | 83 | 1016.5 |
| 20260507020022 | 59 | 355 | 2.6 | 6.1 | 0.00 | 0.54 | 0.54 | 83 | 1016.4 |
| 20260507015504 | 59 | 81 | 1.7 | 9.6 | 0.00 | 0.54 | 0.54 | 84 | 1016.4 |
| 20260507015004 | 59 | 37 | 1.7 | 11.3 | 0.00 | 0.54 | 0.54 | 84 | 1016.3 |
| 20260507014518 | 59 | 78 | 5.2 | 12.2 | 0.00 | 0.54 | 0.54 | 84 | 1016.2 |
| 20260507014005 | 59 | 37 | 2.6 | 12.2 | 0.00 | 0.54 | 0.54 | 84 | 1015.9 |
| 20260507013504 | 59 | 42 | 2.6 | 9.6 | 0.00 | 0.54 | 0.54 | 84 | 1015.9 |
| 20260507013017 | 59 | 327 | 3.5 | 9.6 | 0.00 | 0.54 | 0.54 | 84 | 1015.9 |
| 20260507012508 | 59 | 98 | 2.6 | 8.7 | 0.00 | 0.54 | 0.54 | 84 | 1015.7 |
| 20260507012010 | 59 | 51 | 3.5 | 7.8 | 0.00 | 0.54 | 0.54 | 85 | 1015.7 |
| 20260507011522 | 59 | 55 | 3.5 | 7.8 | 0.00 | 0.54 | 0.54 | 85 | 1015.5 |
| 20260507011010 | 59 | 32 | 2.6 | 7.8 | 0.00 | 0.54 | 0.54 | 85 | 1015.4 |
| 20260507010510 | 59 | 61 | 2.6 | 8.7 | 0.00 | 0.54 | 0.54 | 85 | 1015.3 |
| 20260507010024 | 59 | 39 | 1.7 | 8.7 | 0.00 | 0.54 | 0.54 | 86 | 1015.5 |
| 20260507005507 | 59 | 46 | 1.7 | 6.1 | 0.00 | 0.54 | 0.54 | 86 | 1015.5 |
| 20260507005006 | 59 | 360 | 1.7 | 6.1 | 0.00 | 0.54 | 0.54 | 86 | 1015.5 |
| 20260507004516 | 58 | 20 | 1.7 | 6.1 | 0.00 | 0.54 | 0.54 | 86 | 1015.4 |
| 20260507004010 | 58 | 25 | 0.9 | 7.0 | 0.00 | 0.54 | 0.54 | 86 | 1015.2 |
| 20260507003504 | 58 | 27 | 3.5 | 7.0 | 0.00 | 0.54 | 0.54 | 86 | 1015.2 |
| 20260507003014 | 58 | 17 | 2.6 | 7.0 | 0.01 | 0.54 | 0.54 | 86 | 1015.3 |
| 20260507002506 | 58 | 37 | 1.7 | 4.3 | 0.01 | 0.54 | 0.54 | 86 | 1015.2 |
| 20260507002007 | 58 | 59 | 0.9 | 6.1 | 0.01 | 0.54 | 0.54 | 86 | 1015.1 |
| 20260507001525 | 58 | 52 | 1.7 | 7.8 | 0.01 | 0.54 | 0.54 | 86 | 1015.0 |
| 20260507001007 | 58 | 29 | 1.7 | 7.8 | 0.01 | 0.54 | 0.54 | 85 | 1015.0 |
| 20260507000506 | 58 | 64 | 1.7 | 7.0 | 0.01 | 0.54 | 0.54 | 85 | 1014.9 |
| 20260507000032 | 58 | 51 | 2.6 | 8.7 | 0.01 | 0.54 | 0.54 | 85 | 1015.0 |
| 20260506235508 | 58 | 45 | 2.6 | 8.7 | 0.01 | 0.54 | 0.54 | 85 | 1015.0 |
| 20260506235007 | 58 | 70 | 0.9 | 8.7 | 0.01 | 0.54 | 0.54 | 85 | 1015.0 |
| 20260506234524 | 59 | 51 | 1.7 | 8.7 | 0.01 | 0.54 | 0.54 | 85 | 1015.0 |
| 20260506234011 | 59 | 5 | 0.9 | 8.7 | 0.01 | 0.54 | 0.54 | 84 | 1015.0 |
| 20260506233503 | 59 | 321 | 3.5 | 8.7 | 0.02 | 0.54 | 0.54 | 84 | 1014.9 |
| 20260506233012 | 59 | 346 | 1.7 | 6.1 | 0.01 | 0.52 | 0.52 | 85 | 1014.8 |
| 20260506232504 | 59 | 351 | 2.6 | 7.8 | 0.01 | 0.52 | 0.52 | 84 | 1014.7 |
| 20260506232004 | 59 | 320 | 1.7 | 7.8 | 0.01 | 0.52 | 0.52 | 84 | 1014.6 |
| 20260506231517 | 59 | 360 | 1.7 | 7.8 | 0.01 | 0.52 | 0.52 | 84 | 1014.8 |
| 20260506231008 | 59 | 360 | 3.5 | 7.8 | 0.01 | 0.52 | 0.52 | 84 | 1014.5 |
| 20260506230507 | 59 | 9 | 3.5 | 9.6 | 0.02 | 0.52 | 0.52 | 84 | 1014.5 |
| 20260506230023 | 59 | 65 | 3.5 | 9.6 | 0.02 | 0.52 | 0.52 | 84 | 1014.2 |
| 20260506225510 | 58 | 26 | 0.9 | 8.7 | 0.02 | 0.52 | 0.52 | 84 | 1014.5 |
| 20260506225008 | 58 | 360 | 2.6 | 8.7 | 0.02 | 0.52 | 0.52 | 84 | 1014.7 |
| 20260506224524 | 58 | 54 | 0.9 | 7.0 | 0.02 | 0.52 | 0.52 | 84 | 1014.8 |
| 20260506224009 | 58 | 360 | 2.6 | 7.0 | 0.02 | 0.52 | 0.52 | 84 | 1014.7 |
| 20260506223507 | 58 | 22 | 0.9 | 7.0 | 0.01 | 0.52 | 0.52 | 84 | 1014.5 |
| 20260506223024 | 58 | 76 | 2.6 | 7.0 | 0.02 | 0.52 | 0.52 | 84 | 1014.8 |
| 20260506222507 | 58 | 47 | 1.7 | 7.0 | 0.02 | 0.52 | 0.52 | 84 | 1014.6 |
| 20260506222006 | 58 | 41 | 1.7 | 7.0 | 0.02 | 0.52 | 0.52 | 85 | 1014.5 |
| 20260506221513 | 58 | 11 | 0.9 | 8.7 | 0.02 | 0.52 | 0.52 | 84 | 1014.4 |
| 20260506221012 | 58 | 51 | 1.7 | 8.7 | 0.03 | 0.52 | 0.52 | 84 | 1014.1 |
| 20260506220507 | 58 | 68 | 1.7 | 7.0 | 0.02 | 0.51 | 0.51 | 84 | 1014.1 |
| 20260506220022 | 58 | 60 | 2.6 | 8.7 | 0.02 | 0.51 | 0.51 | 84 | 1014.4 |
| 20260506215507 | 58 | 40 | 3.5 | 8.7 | 0.02 | 0.51 | 0.51 | 83 | 1014.2 |
| 20260506215007 | 59 | 339 | 2.6 | 7.0 | 0.02 | 0.51 | 0.51 | 83 | 1014.3 |
| 20260506214521 | 59 | 325 | 2.6 | 7.8 | 0.02 | 0.51 | 0.51 | 83 | 1014.1 |
| 20260506214007 | 59 | 348 | 2.6 | 9.6 | 0.03 | 0.51 | 0.51 | 82 | 1014.4 |
| 20260506213508 | 59 | 281 | 1.7 | 9.6 | 0.03 | 0.51 | 0.51 | 83 | 1014.1 |
| 20260506213025 | 59 | 348 | 2.6 | 7.8 | 0.02 | 0.50 | 0.50 | 82 | 1013.9 |
| 20260506212507 | 59 | 329 | 1.7 | 8.7 | 0.02 | 0.50 | 0.50 | 83 | 1014.3 |
| 20260506212009 | 59 | 313 | 1.7 | 8.7 | 0.03 | 0.50 | 0.50 | 83 | 1014.3 |
| 20260506211527 | 59 | 32 | 1.7 | 7.8 | 0.03 | 0.50 | 0.50 | 83 | 1014.3 |
| 20260506211010 | 59 | 34 | 2.6 | 7.8 | 0.02 | 0.49 | 0.49 | 83 | 1014.1 |
| 20260506210504 | 59 | 330 | 0.9 | 7.8 | 0.02 | 0.49 | 0.49 | 83 | 1014.2 |
| 20260506210015 | 59 | 49 | 2.6 | 7.8 | 0.02 | 0.49 | 0.49 | 84 | 1014.3 |
| 20260506205507 | 59 | 313 | 2.6 | 7.8 | 0.02 | 0.49 | 0.49 | 84 | 1014.2 |
| 20260506205004 | 59 | 333 | 3.5 | 8.7 | 0.02 | 0.49 | 0.49 | 83 | 1014.3 |
| 20260506204524 | 59 | 301 | 3.5 | 8.7 | 0.03 | 0.49 | 0.49 | 84 | 1014.6 |
| 20260506204006 | 58 | 46 | 1.7 | 9.6 | 0.02 | 0.48 | 0.48 | 84 | 1014.6 |
| 20260506203517 | 58 | 311 | 4.3 | 9.6 | 0.02 | 0.48 | 0.48 | 85 | 1014.5 |
| 20260506203022 | 58 | 334 | 2.6 | 7.0 | 0.03 | 0.48 | 0.48 | 85 | 1014.6 |
| 20260506202507 | 58 | 360 | 2.6 | 7.0 | 0.03 | 0.48 | 0.48 | 86 | 1014.7 |
| 20260506202011 | 57 | 306 | 1.7 | 6.1 | 0.02 | 0.47 | 0.47 | 85 | 1014.9 |
| 20260506201526 | 57 | 360 | 2.6 | 4.3 | 0.02 | 0.47 | 0.47 | 85 | 1015.2 |
| 20260506201008 | 57 | 343 | 0.9 | 7.8 | 0.02 | 0.47 | 0.47 | 85 | 1015.2 |
| 20260506200512 | 57 | 61 | 0.9 | 7.8 | 0.02 | 0.47 | 0.47 | 85 | 1015.2 |
| 20260506200026 | 58 | 342 | 1.7 | 7.8 | 0.03 | 0.47 | 0.47 | 86 | 1015.0 |
| 20260506195507 | 57 | 21 | 2.6 | 8.7 | 0.03 | 0.47 | 0.47 | 87 | 1014.7 |
| 20260506195006 | 57 | 328 | 3.5 | 8.7 | 0.03 | 0.47 | 0.47 | 88 | 1014.6 |
| 20260506194518 | 57 | 350 | 3.5 | 8.7 | 0.03 | 0.46 | 0.46 | 88 | 1014.7 |
| 20260506194006 | 56 | 347 | 2.6 | 6.1 | 0.03 | 0.46 | 0.46 | 88 | 1015.0 |
| 20260506193505 | 56 | 40 | 0.9 | 4.3 | 0.03 | 0.46 | 0.46 | 88 | 1015.0 |
| 20260506193019 | 56 | 329 | 0.0 | 3.5 | 0.02 | 0.45 | 0.45 | 88 | 1015.2 |
| 20260506192511 | 56 | 331 | 0.0 | 4.3 | 0.03 | 0.45 | 0.45 | 88 | 1015.4 |
| 20260506192013 | 56 | 324 | 1.7 | 7.8 | 0.03 | 0.45 | 0.45 | 88 | 1015.4 |
| 20260506191524 | 56 | 9 | 1.7 | 7.8 | 0.04 | 0.45 | 0.45 | 88 | 1015.3 |
| 20260506191007 | 56 | 314 | 1.7 | 7.8 | 0.04 | 0.45 | 0.45 | 88 | 1015.4 |
| 20260506190508 | 56 | 317 | 1.7 | 7.0 | 0.04 | 0.45 | 0.45 | 88 | 1015.3 |
| 20260506190024 | 56 | 313 | 0.9 | 7.0 | 0.04 | 0.44 | 0.44 | 88 | 1015.2 |
| 20260506185506 | 56 | 360 | 2.6 | 6.1 | 0.04 | 0.44 | 0.44 | 88 | 1015.4 |
| 20260506185011 | 56 | 355 | 1.7 | 5.2 | 0.05 | 0.44 | 0.44 | 88 | 1015.1 |
| 20260506184525 | 56 | 49 | 0.0 | 4.3 | 0.04 | 0.43 | 0.43 | 89 | 1015.1 |
| 20260506184009 | 56 | 38 | 0.0 | 8.7 | 0.05 | 0.43 | 0.43 | 89 | 1014.9 |
| 20260506183507 | 56 | 52 | 1.7 | 9.6 | 0.05 | 0.43 | 0.43 | 89 | 1014.6 |
| 20260506183019 | 55 | 52 | 2.6 | 9.6 | 0.06 | 0.43 | 0.43 | 89 | 1014.2 |
| 20260506182506 | 55 | 22 | 2.6 | 11.3 | 0.05 | 0.42 | 0.42 | 89 | 1013.8 |
| 20260506182007 | 55 | 25 | 3.5 | 12.2 | 0.06 | 0.42 | 0.42 | 89 | 1013.7 |
| 20260506181523 | 55 | 360 | 4.3 | 12.2 | 0.06 | 0.41 | 0.41 | 90 | 1013.5 |
| 20260506181010 | 55 | 320 | 2.6 | 10.4 | 0.06 | 0.41 | 0.41 | 90 | 1013.5 |
| 20260506180510 | 55 | 30 | 3.5 | 10.4 | 0.07 | 0.41 | 0.41 | 90 | 1013.5 |
| 20260506180029 | 55 | 325 | 1.7 | 10.4 | 0.07 | 0.40 | 0.40 | 91 | 1013.6 |
| 20260506175502 | 55 | 46 | 2.6 | 10.4 | 0.08 | 0.40 | 0.40 | 91 | 1013.9 |
| 20260506175003 | 55 | 13 | 0.9 | 8.7 | 0.08 | 0.39 | 0.39 | 91 | 1014.2 |
| 20260506174512 | 55 | 67 | 2.6 | 8.7 | 0.08 | 0.39 | 0.39 | 91 | 1014.2 |
| 20260506174004 | 54 | 15 | 1.7 | 7.8 | 0.09 | 0.38 | 0.38 | 91 | 1014.3 |
| 20260506173505 | 54 | 36 | 2.6 | 9.6 | 0.09 | 0.38 | 0.38 | 90 | 1014.6 |
| 20260506173014 | 54 | 34 | 4.3 | 9.6 | 0.10 | 0.37 | 0.37 | 90 | 1015.0 |
| 20260506172503 | 54 | 71 | 1.7 | 9.6 | 0.11 | 0.37 | 0.37 | 90 | 1015.1 |
| 20260506172007 | 54 | 56 | 2.6 | 7.8 | 0.11 | 0.36 | 0.36 | 90 | 1015.2 |
| 20260506171523 | 54 | 23 | 0.9 | 7.8 | 0.12 | 0.35 | 0.35 | 91 | 1015.2 |
| 20260506171008 | 54 | 65 | 2.6 | 9.6 | 0.13 | 0.35 | 0.35 | 91 | 1015.4 |
| 20260506170507 | 54 | 340 | 3.5 | 9.6 | 0.14 | 0.34 | 0.34 | 91 | 1014.6 |
| 20260506170004 | 54 | 34 | 1.7 | 7.0 | 0.15 | 0.33 | 0.33 | 91 | 1014.8 |
| 20260506165503 | 54 | 31 | 1.7 | 8.7 | 0.16 | 0.32 | 0.32 | 91 | 1014.9 |
| 20260506165003 | 54 | 340 | 1.7 | 8.7 | 0.17 | 0.31 | 0.31 | 91 | 1015.1 |
| 20260506164508 | 54 | 59 | 0.9 | 7.8 | 0.20 | 0.31 | 0.31 | 91 | 1015.2 |
| 20260506164004 | 54 | 5 | 1.7 | 7.8 | 0.21 | 0.29 | 0.29 | 91 | 1015.0 |
| 20260506163504 | 54 | 350 | 0.9 | 6.1 | 0.24 | 0.29 | 0.29 | 91 | 1015.3 |
| 20260506163029 | 54 | 338 | 1.7 | 5.2 | 0.27 | 0.27 | 0.27 | 91 | 1015.3 |
| 20260506162504 | 54 | 40 | 2.6 | 5.2 | 0.26 | 0.26 | 0.26 | 91 | 1015.4 |
| 20260506162006 | 54 | 86 | 0.0 | 5.2 | 0.25 | 0.25 | 0.25 | 91 | 1015.5 |
| 20260506161518 | 54 | 89 | 0.0 | 5.2 | 0.23 | 0.23 | 0.23 | 91 | 1015.5 |
| 20260506161004 | 54 | 130 | 0.0 | 7.0 | 0.22 | 0.22 | 0.22 | 91 | 1015.2 |
| 20260506160510 | 54 | 130 | 1.7 | 7.0 | 0.20 | 0.20 | 0.20 | 91 | 1015.2 |
| 20260506160021 | 53 | 104 | 0.9 | 10.4 | 0.18 | 0.18 | 0.18 | 90 | 1015.0 |
| 20260506155507 | 53 | 360 | 2.6 | 13.0 | 0.16 | 0.16 | 0.16 | 90 | 1014.7 |
| 20260506155010 | 53 | 335 | 5.2 | 13.0 | 0.14 | 0.14 | 0.14 | 89 | 1014.4 |
| 20260506154505 | 53 | 18 | 4.3 | 10.4 | 0.11 | 0.11 | 0.11 | 88 | 1014.2 |
| 20260506154008 | 54 | 360 | 3.5 | 7.8 | 0.08 | 0.08 | 0.08 | 86 | 1016.1 |
| 20260506153504 | 54 | 277 | 2.6 | 7.0 | 0.05 | 0.05 | 0.05 | 85 | 1017.2 |
| 20260506153006 | 54 | 285 | 1.7 | 7.0 | 0.00 | 0.00 | 0.00 | 84 | 1016.6 |
| 20260506152505 | 54 | 305 | 0.9 | 7.0 | 0.00 | 0.00 | 0.00 | 84 | 1016.1 |
| 20260506152006 | 54 | 313 | 0.9 | 7.8 | 0.00 | 0.00 | 0.00 | 84 | 1015.9 |
| 20260506151513 | 54 | 350 | 3.5 | 7.8 | 0.00 | 0.00 | 0.00 | 84 | 1015.5 |
| 20260506151004 | 54 | 360 | 1.7 | 7.8 | 0.00 | 0.00 | 0.00 | 84 | 1015.4 |
| 20260506150504 | 54 | 325 | 2.6 | 9.6 | 0.00 | 0.00 | 0.00 | 83 | 1015.3 |
| 20260506150016 | 54 | 331 | 1.7 | 13.0 | 0.00 | 0.00 | 0.00 | 83 | 1015.5 |
| 20260506145510 | 54 | 352 | 4.3 | 13.0 | 0.00 | 0.00 | 0.00 | 83 | 1014.6 |
| 20260506145011 | 54 | 306 | 4.3 | 9.6 | 0.00 | 0.00 | 0.00 | 83 | 1014.7 |
| 20260506144523 | 54 | 360 | 1.7 | 8.7 | 0.00 | 0.00 | 0.00 | 83 | 1015.4 |
| 20260506144008 | 54 | 360 | 3.5 | 8.7 | 0.00 | 0.00 | 0.00 | 83 | 1015.5 |
| 20260506143508 | 54 | 360 | 3.5 | 8.7 | 0.00 | 0.00 | 0.00 | 83 | 1015.3 |
| 20260506143007 | 54 | 360 | 2.6 | 9.6 | 0.00 | 0.00 | 0.00 | 83 | 1015.0 |
| 20260506142504 | 54 | 9 | 3.5 | 9.6 | 0.00 | 0.00 | 0.00 | 83 | 1014.9 |
| 20260506142003 | 54 | 360 | 0.9 | 6.1 | 0.00 | 0.00 | 0.00 | 83 | 1014.9 |
| 20260506141513 | 54 | 314 | 1.7 | 9.6 | 0.00 | 0.00 | 0.00 | 83 | 1014.9 |
| 20260506141013 | 54 | 360 | 1.7 | 9.6 | 0.00 | 0.00 | 0.00 | 83 | 1014.7 |
| 20260506140504 | 54 | 315 | 4.3 | 9.6 | 0.00 | 0.00 | 0.00 | 83 | 1014.5 |
| 20260506140016 | 54 | 24 | 3.5 | 9.6 | 0.00 | 0.00 | 0.00 | 83 | 1014.4 |
| 20260506135511 | 54 | 348 | 3.5 | 9.6 | 0.00 | 0.00 | 0.00 | 83 | 1014.4 |
| 20260506135008 | 54 | 22 | 2.6 | 9.6 | 0.00 | 0.00 | 0.00 | 83 | 1014.4 |
| 20260506134518 | 54 | 28 | 2.6 | 9.6 | 0.00 | 0.00 | 0.00 | 83 | 1014.4 |
| 20260506134011 | 54 | 323 | 5.2 | 10.4 | 0.00 | 0.00 | 0.00 | 83 | 1014.3 |
| 20260506133505 | 54 | 311 | 4.3 | 10.4 | 0.00 | 0.00 | 0.00 | 83 | 1014.3 |
| 20260506133027 | 54 | 17 | 1.7 | 11.3 | 0.00 | 0.00 | 0.00 | 83 | 1014.1 |
| 20260506132511 | 54 | 315 | 2.6 | 11.3 | 0.00 | 0.00 | 0.00 | 83 | 1014.0 |
| 20260506132007 | 54 | 348 | 4.3 | 10.4 | 0.00 | 0.00 | 0.00 | 82 | 1014.0 |
| 20260506131508 | 54 | 49 | 3.5 | 9.6 | 0.00 | 0.00 | 0.00 | 82 | 1013.9 |
| 20260506131003 | 54 | 360 | 2.6 | 9.6 | 0.00 | 0.00 | 0.00 | 83 | 1014.0 |
| 20260506130504 | 54 | 329 | 1.7 | 9.6 | 0.00 | 0.00 | 0.00 | 83 | 1013.9 |
| 20260506130012 | 54 | 352 | 3.5 | 12.2 | 0.00 | 0.00 | 0.00 | 83 | 1013.9 |
| 20260506125502 | 54 | 298 | 5.2 | 12.2 | 0.00 | 0.00 | 0.00 | 83 | 1013.8 |
| 20260506125004 | 54 | 20 | 4.3 | 8.7 | 0.00 | 0.00 | 0.00 | 83 | 1013.8 |
| 20260506124516 | 55 | 333 | 0.9 | 8.7 | 0.00 | 0.00 | 0.00 | 83 | 1013.5 |
| 20260506124008 | 54 | 342 | 1.7 | 8.7 | 0.00 | 0.00 | 0.00 | 82 | 1013.6 |
| 20260506123504 | 54 | 25 | 2.6 | 7.8 | 0.00 | 0.00 | 0.00 | 82 | 1013.6 |
| 20260506123028 | 54 | 330 | 2.6 | 8.7 | 0.00 | 0.00 | 0.00 | 82 | 1013.5 |
| 20260506122505 | 54 | 360 | 1.7 | 8.7 | 0.00 | 0.00 | 0.00 | 82 | 1013.3 |
| 20260506122008 | 55 | 327 | 3.5 | 8.7 | 0.00 | 0.00 | 0.00 | 82 | 1013.3 |
| 20260506121533 | 55 | 28 | 2.6 | 11.3 | 0.00 | 0.00 | 0.00 | 82 | 1013.4 |
| 20260506121008 | 55 | 342 | 3.5 | 11.3 | 0.00 | 0.00 | 0.00 | 82 | 1013.5 |
| 20260506120507 | 55 | 9 | 3.5 | 11.3 | 0.00 | 0.00 | 0.00 | 82 | 1013.3 |
| 20260506120011 | 55 | 306 | 3.5 | 11.3 | 0.00 | 0.00 | 0.00 | 81 | 1013.3 |
| 20260506115506 | 55 | 360 | 1.7 | 8.7 | 0.00 | 0.00 | 0.00 | 81 | 1013.1 |
| 20260506115002 | 55 | 329 | 2.6 | 10.4 | 0.00 | 0.00 | 0.00 | 81 | 1013.1 |
| 20260506114513 | 55 | 311 | 3.5 | 10.4 | 0.00 | 0.00 | 0.00 | 80 | 1012.8 |
| 20260506114007 | 55 | 306 | 3.5 | 10.4 | 0.00 | 0.00 | 0.00 | 80 | 1012.6 |
| 20260506113506 | 55 | 360 | 3.5 | 9.6 | 0.00 | 0.00 | 0.00 | 79 | 1012.4 |
| 20260506113020 | 55 | 329 | 3.5 | 11.3 | 0.00 | 0.00 | 0.00 | 79 | 1012.5 |
| 20260506112506 | 55 | 14 | 4.3 | 11.3 | 0.00 | 0.00 | 0.00 | 79 | 1012.6 |
| 20260506112009 | 55 | 311 | 4.3 | 13.0 | 0.00 | 0.00 | 0.00 | 79 | 1012.5 |
| 20260506111523 | 55 | 303 | 3.5 | 13.0 | 0.00 | 0.00 | 0.00 | 78 | 1012.3 |
| 20260506111007 | 55 | 315 | 6.1 | 11.3 | 0.00 | 0.00 | 0.00 | 78 | 1012.3 |
| 20260506110510 | 56 | 317 | 5.2 | 9.6 | 0.00 | 0.00 | 0.00 | 77 | 1012.3 |
| 20260506110029 | 56 | 327 | 3.5 | 8.7 | 0.00 | 0.00 | 0.00 | 77 | 1012.2 |
| 20260506105509 | 56 | 348 | 4.3 | 8.7 | 0.00 | 0.00 | 0.00 | 77 | 1012.0 |
| 20260506105008 | 57 | 342 | 2.6 | 8.7 | 0.00 | 0.00 | 0.00 | 77 | 1012.0 |
| 20260506104507 | 57 | 323 | 0.9 | 6.1 | 0.00 | 0.00 | 0.00 | 77 | 1011.8 |
| 20260506104004 | 57 | 360 | 1.7 | 7.8 | 0.00 | 0.00 | 0.00 | 77 | 1011.7 |
| 20260506103504 | 57 | 316 | 0.9 | 7.8 | 0.00 | 0.00 | 0.00 | 77 | 1011.6 |
| 20260506103015 | 57 | 348 | 1.7 | 5.2 | 0.00 | 0.00 | 0.00 | 77 | 1011.5 |
| 20260506102506 | 57 | 28 | 1.7 | 6.1 | 0.00 | 0.00 | 0.00 | 76 | 1011.6 |
| 20260506102008 | 57 | 351 | 1.7 | 7.0 | 0.00 | 0.00 | 0.00 | 76 | 1011.5 |
| 20260506101521 | 57 | 51 | 3.5 | 7.0 | 0.00 | 0.00 | 0.00 | 76 | 1011.4 |
| 20260506101008 | 57 | 342 | 1.7 | 8.7 | 0.00 | 0.00 | 0.00 | 76 | 1011.2 |
| 20260506100507 | 57 | 327 | 0.9 | 8.7 | 0.00 | 0.00 | 0.00 | 76 | 1011.3 |
| 20260506100025 | 57 | 340 | 0.9 | 7.0 | 0.00 | 0.00 | 0.00 | 76 | 1011.2 |
| 20260506095508 | 57 | 317 | 3.5 | 8.7 | 0.00 | 0.00 | 0.00 | 76 | 1011.1 |
| 20260506095009 | 57 | 327 | 0.9 | 8.7 | 0.00 | 0.00 | 0.00 | 76 | 1011.2 |
| 20260506094524 | 57 | 360 | 3.5 | 8.7 | 0.00 | 0.00 | 0.00 | 76 | 1011.2 |
| 20260506094012 | 57 | 336 | 2.6 | 7.0 | 0.00 | 0.00 | 0.00 | 76 | 1011.2 |
| 20260506093510 | 57 | 306 | 1.7 | 10.4 | 0.00 | 0.00 | 0.00 | 76 | 1011.0 |
| 20260506093011 | 58 | 306 | 3.5 | 10.4 | 0.00 | 0.00 | 0.00 | 76 | 1011.1 |
| 20260506092503 | 58 | 283 | 2.6 | 8.7 | 0.00 | 0.00 | 0.00 | 76 | 1011.1 |
| 20260506092007 | 58 | 9 | 0.0 | 4.3 | 0.00 | 0.00 | 0.00 | 76 | 1011.0 |
| 20260506091516 | 58 | 318 | 0.0 | 5.2 | 0.00 | 0.00 | 0.00 | 76 | 1010.9 |
| 20260506091006 | 58 | 349 | 1.7 | 5.2 | 0.00 | 0.00 | 0.00 | 76 | 1010.8 |
| 20260506090505 | 58 | 10 | 0.9 | 7.0 | 0.00 | 0.00 | 0.00 | 76 | 1010.7 |
| 20260506090022 | 58 | 19 | 1.7 | 7.0 | 0.00 | 0.00 | 0.00 | 76 | 1010.6 |
| 20260506085507 | 58 | 340 | 1.7 | 10.4 | 0.00 | 0.00 | 0.00 | 76 | 1010.6 |
| 20260506085007 | 58 | 352 | 0.9 | 10.4 | 0.00 | 0.00 | 0.00 | 76 | 1010.4 |
| 20260506084524 | 58 | 351 | 2.6 | 7.8 | 0.00 | 0.00 | 0.00 | 76 | 1010.5 |
| 20260506084007 | 58 | 344 | 2.6 | 7.0 | 0.00 | 0.00 | 0.00 | 76 | 1010.6 |
| 20260506083507 | 58 | 319 | 1.7 | 6.1 | 0.00 | 0.00 | 0.00 | 77 | 1010.5 |
| 20260506083027 | 58 | 331 | 0.9 | 6.1 | 0.00 | 0.00 | 0.00 | 77 | 1010.3 |
| 20260506082507 | 58 | 40 | 1.7 | 5.2 | 0.00 | 0.00 | 0.00 | 77 | 1010.2 |
| 20260506082011 | 58 | 50 | 0.9 | 6.1 | 0.00 | 0.00 | 0.00 | 77 | 1010.0 |
| 20260506081513 | 58 | 46 | 0.9 | 6.1 | 0.00 | 0.00 | 0.00 | 77 | 1010.2 |
| 20260506081003 | 58 | 47 | 0.9 | 4.3 | 0.00 | 0.00 | 0.00 | 76 | 1010.3 |
| 20260506080504 | 58 | 59 | 0.9 | 6.1 | 0.00 | 0.00 | 0.00 | 76 | 1010.2 |
| 20260506073508 | 58 | 22 | 2.6 | 7.8 | 0.00 | 0.00 | 0.00 | 77 | 1010.3 |
| 20260506073025 | 59 | 27 | 1.7 | 7.8 | 0.00 | 0.00 | 0.00 | 77 | 1010.3 |
| 20260506072507 | 59 | 334 | 2.6 | 7.0 | 0.00 | 0.00 | 0.00 | 77 | 1010.4 |
| 20260506072014 | 59 | 327 | 1.7 | 7.0 | 0.00 | 0.00 | 0.00 | 77 | 1010.3 |
| 20260506071531 | 59 | 57 | 2.6 | 8.7 | 0.00 | 0.00 | 0.00 | 77 | 1010.3 |
| 20260506071012 | 59 | 352 | 1.7 | 8.7 | 0.00 | 0.00 | 0.00 | 77 | 1010.3 |
| 20260506070506 | 59 | 78 | 1.7 | 8.7 | 0.00 | 0.00 | 0.00 | 77 | 1010.3 |
| 20260506062505 | 60 | 360 | 4.3 | 8.7 | 0.00 | 0.00 | 0.00 | 78 | 1010.2 |
| 20260506062004 | 61 | 315 | 2.6 | 8.7 | 0.00 | 0.00 | 0.00 | 78 | 1010.3 |
| 20260506061514 | 61 | 9 | 3.5 | 9.6 | 0.00 | 0.00 | 0.00 | 78 | 1010.2 |
| 20260506061004 | 61 | 49 | 2.6 | 9.6 | 0.00 | 0.00 | 0.00 | 78 | 1010.2 |
| 20260506060508 | 61 | 355 | 0.9 | 7.0 | 0.00 | 0.00 | 0.00 | 79 | 1010.2 |